Temp_Advection
nan nan nan nan nan nan nan nan nan nan nan nan nan nan nan nan nan nan nan nan nan nan nan nan nan nan nan nan nan nan nan nan nan nan nan nan nan nan nan nan nan nan nan
nan 0 -0 -0 0 0 0 0 0 -0 -0 -0 -0 -0 -0 -0 -1 -1 -0 -0 -0 -1 -1 -1 -0 -1 -0 -1 -1 -0 -0 -0 -0 -1 -2 -3 -3 -4 -5 -5 -2 -1 nan
nan 0 0 0 0 0 0 -0 -0 -0 -0 -0 -0 -0 -0 -0 -1 -0 -0 -0 -0 -0 -0 -0 0 0 -0 -1 -1 -1 -1 -0 -0 -0 -0 -1 -1 -1 -1 -2 -3 -3 nan
nan -0 -0 -0 0 -0 -0 -0 -0 -0 -0 -0 -0 -0 -0 -0 -0 0 0 -0 -0 0 0 0 1 1 1 0 -1 -1 -1 -1 -0 -0 -0 0 -0 -0 -0 -0 -0 -1 nan
nan -0 -0 0 0 -0 -0 -0 -0 -0 -0 -0 -0 -0 -0 -1 -0 -0 -0 -0 -0 -0 -0 0 1 1 1 0 0 -0 -0 -0 -0 -0 -0 -0 0 0 -0 -0 -0 -0 nan
nan -0 0 0 0 -0 -0 -0 -0 -0 -0 -0 -0 -0 -0 -0 -0 -1 -1 -0 -0 -0 -0 -1 -0 -0 0 -1 -0 -0 -0 -0 -0 -0 -0 -0 -0 0 0 0 0 0 nan
nan 0 0 0 0 -0 -0 -0 -0 -0 -0 -0 -0 -0 -0 -0 -0 -1 -1 -0 0 0 -0 -0 -1 0 1 0 -0 -0 0 0 0 0 0 0 0 0 0 -0 0 0 nan
nan 0 0 0 0 -0 -0 0 -0 -0 -0 -0 -0 0 0 -0 -0 -1 -1 -1 -0 -0 0 1 -0 -0 0 1 0 -0 0 1 0 0 0 0 0 0 1 0 0 -0 nan
nan 0 0 0 0 -0 -0 -0 -0 -0 -0 -0 0 0 0 1 0 -0 -0 -1 -1 -1 -0 0 0 -1 -1 0 0 0 -0 0 0 0 0 0 0 0 0 0 0 0 nan
nan 0 0 0 0 -0 -0 -0 -0 0 0 0 0 0 0 1 1 0 -0 -0 -1 -1 -1 -1 -0 -0 0 1 0 0 -0 -0 -0 -0 -0 -0 -0 -0 0 0 0 -0 nan
nan -0 -0 -0 0 -0 0 0 0 0 0 0 0 0 0 0 0 0 -0 0 -0 -1 -1 -1 -1 -0 -0 -0 0 0 -0 -0 -0 -0 -0 -0 -1 -1 -0 0 0 0 nan
nan -0 -0 0 0 0 0 0 0 0 0 0 0 0 0 0 -0 0 0 0 0 -0 -0 -1 -1 0 0 0 0 0 0 -0 -0 -0 -0 -0 -0 -0 -0 -0 0 0 nan
nan -0 0 0 0 0 0 0 0 0 0 -0 -0 0 0 -0 -0 0 0 -0 -1 -0 -1 -1 -0 -0 -0 -0 0 -0 -0 -0 -0 -0 -1 -0 -0 -0 -0 -0 -0 -0 nan
nan 0 0 0 0 0 0 0 0 0 0 -0 -0 -0 -0 -0 -1 -2 -2 -1 -1 -1 -1 -0 -0 -0 -0 -1 -1 -1 -1 -1 -0 -0 -0 -1 -0 -0 -0 -0 -0 -0 nan
nan 0 0 0 0 0 0 0 0 0 0 0 -0 -0 -0 -1 -1 -1 -1 -1 0 0 0 -1 -1 -0 -1 -1 -1 -1 -0 -0 -0 -0 -0 -0 -0 -0 -0 -0 0 0 nan
nan 0 0 0 0 0 0 0 0 0 0 0 0 -0 0 0 -0 0 0 1 0 1 1 -1 -1 -1 -1 -1 -1 -0 -0 0 0 0 -0 -0 -0 -0 -0 -0 0 0 nan
nan 0 0 0 0 0 -0 0 0 0 0 0 0 0 0 1 1 1 0 0 0 0 -1 -0 -0 -0 -0 -0 -0 -0 -0 0 0 0 0 0 0 0 0 -0 0 0 nan
nan 0 0 0 0 -0 -0 0 0 0 0 0 0 0 0 1 1 0 0 -1 -1 -1 -1 -0 -0 -0 -0 -0 -0 -0 -0 -0 0 0 1 1 0 0 0 0 -0 -0 nan
nan 1 0 0 -0 0 0 0 0 0 0 0 0 0 0 1 1 0 0 -1 -2 -1 -0 -0 -0 -0 0 -0 -0 -0 -0 -0 0 0 0 0 0 0 0 0 -0 -0 nan
nan 1 0 -0 0 0 0 0 0 0 0 0 0 0 0 0 0 -0 0 -0 -0 -0 0 -0 -0 -0 0 0 -0 -1 -0 -0 0 -0 -0 0 0 -0 -0 -0 -0 -0 nan
nan 0 -0 -0 0 0 0 0 0 0 0 0 0 0 0 0 0 -0 0 0 0 0 0 0 -0 -0 -0 0 0 -0 -0 -0 -0 -0 -0 -0 -0 -0 -0 -0 -0 -0 nan
nan -0 -0 0 0 0 0 0 0 0 0 0 0 0 1 1 1 0 0 1 1 1 1 0 -0 -0 -0 -0 -0 0 -0 -0 -0 -0 -0 -0 -0 -0 -0 -0 -0 -0 nan
nan 0 0 0 0 0 0 0 0 0 0 0 0 0 0 0 1 0 1 0 0 0 1 1 1 -0 0 0 0 0 0 0 0 0 0 -0 -0 -0 -0 -0 -0 -0 nan
nan 0 0 0 0 0 0 0 0 0 0 0 0 0 0 0 1 0 1 1 0 0 0 1 1 1 0 0 0 0 0 0 0 0 0 0 -0 -0 -0 -0 -0 -0 nan
nan 0 0 0 0 0 0 0 0 0 0 0 0 0 0 0 1 0 0 0 0 -0 0 0 1 1 1 0 0 0 0 0 0 0 0 0 -0 -0 -0 -0 -0 -0 nan
nan nan nan nan nan nan nan nan nan nan nan nan nan nan nan nan nan nan nan nan nan nan nan nan nan nan nan nan nan nan nan nan nan nan nan nan nan nan nan nan nan nan nan
Wind_Speed
5 5 5 6 5 6 7 8 10 11 13 16 18 20 21 22 22 23 25 27 27 27 26 25 22 22 23 25 28 33 35 34 38 42 45 46 44 40 37 34 35 33 37
4 4 4 4 4 4 7 8 10 12 14 16 17 18 19 20 19 22 25 27 28 28 28 25 23 23 24 28 34 35 34 35 33 43 38 41 40 40 41 41 32 34 37
6 4 3 3 3 4 6 8 10 12 13 15 16 17 19 19 20 23 26 28 29 29 27 26 25 24 30 34 35 36 38 36 30 31 39 35 36 38 41 37 40 43 39
8 6 4 2 2 4 5 7 10 11 12 13 15 16 17 19 20 22 26 28 29 28 28 27 27 29 31 32 35 34 30 33 34 36 37 41 39 39 36 41 46 43 46
10 8 5 3 2 3 4 7 9 10 11 12 14 15 18 21 22 24 28 30 31 30 29 29 29 29 29 29 29 30 33 36 38 41 40 42 41 39 40 41 43 46 44
11 9 6 4 2 2 4 7 9 9 9 11 14 16 20 21 23 27 29 31 31 31 31 30 31 33 33 30 27 29 31 37 38 38 38 38 39 40 39 39 40 43 44
12 9 7 5 2 1 4 6 8 8 10 12 14 17 19 21 24 28 31 31 31 30 32 35 36 34 33 31 32 35 35 32 29 30 34 34 37 37 39 40 39 40 42
13 11 8 6 3 1 3 5 7 8 11 13 15 17 18 22 26 28 29 29 30 32 33 34 35 35 35 32 34 34 32 31 29 28 30 34 35 34 32 34 35 37 38
15 12 9 6 4 2 4 7 8 9 10 12 14 16 20 22 25 25 28 29 31 33 34 33 35 35 34 29 30 33 34 32 30 30 31 31 30 29 27 30 32 34 36
17 13 11 8 5 4 4 6 7 8 10 12 15 17 18 20 22 25 28 30 34 36 36 35 35 33 29 27 28 30 33 33 34 35 33 32 30 30 28 27 29 32 33
15 15 13 10 7 5 5 6 8 9 10 12 15 17 19 22 23 26 28 30 34 37 38 38 36 31 29 27 24 26 28 32 34 34 34 34 33 32 30 28 26 27 29
21 19 16 12 9 7 6 7 8 10 11 12 15 18 20 21 22 24 26 27 31 35 36 36 35 32 30 28 28 28 29 32 34 36 34 35 35 34 32 29 27 25 24
25 21 17 13 10 8 7 8 9 10 11 13 16 19 20 20 21 23 25 29 33 34 33 33 32 31 31 31 31 29 30 33 35 36 36 35 35 33 31 28 27 27 25
27 22 19 15 11 9 8 8 10 11 12 14 16 18 20 21 24 26 28 32 36 34 33 33 34 35 32 32 34 35 35 34 36 36 37 35 34 33 31 29 29 28 26
27 22 20 16 13 10 8 9 10 11 12 14 16 18 21 22 23 26 29 34 34 30 32 35 36 36 36 37 36 35 35 36 36 35 33 32 31 30 29 28 27 24 25
27 23 21 18 13 11 9 9 10 11 13 15 17 19 19 20 23 26 30 30 28 29 32 35 36 36 37 37 38 37 38 38 36 33 32 29 29 28 28 27 24 24 25
27 23 22 18 15 12 9 9 10 10 13 15 17 18 19 22 25 28 28 25 25 28 31 33 34 35 36 37 35 37 38 38 35 33 32 28 28 27 26 26 25 24 20
27 25 22 18 15 12 10 9 10 12 13 14 16 18 20 22 25 27 24 25 27 28 30 32 33 33 35 37 35 35 37 37 34 32 30 27 26 25 26 25 22 18 14
28 27 23 19 14 12 10 10 11 12 12 14 16 17 19 22 24 26 24 24 27 28 30 31 31 32 34 34 34 34 35 35 33 30 27 25 26 26 23 19 15 12 11
28 26 22 18 15 13 12 11 11 12 12 14 16 19 19 22 23 26 24 23 25 27 28 29 31 31 32 32 33 34 33 33 31 29 25 25 25 20 18 14 14 13 10
28 27 24 19 16 14 13 12 12 11 13 14 16 19 20 21 22 23 24 22 25 26 26 29 30 30 30 32 32 33 31 32 30 27 25 23 20 17 14 12 10 10 11
28 25 20 16 15 14 13 12 12 12 12 14 15 17 18 19 21 23 23 21 23 24 25 27 28 28 28 29 30 31 29 30 28 24 23 19 15 12 11 10 7 7 6
26 23 20 18 16 15 13 12 12 11 12 14 15 16 17 19 20 20 22 21 23 24 25 26 28 28 27 28 28 26 27 27 25 21 19 16 11 10 9 8 5 5 6
24 23 20 17 16 15 13 12 11 12 12 13 15 16 17 18 19 20 21 20 22 23 24 25 26 26 27 27 26 24 22 21 20 16 13 11 9 9 7 4 5 6 9
26 25 22 18 16 14 14 13 12 12 13 14 14 16 17 17 18 19 20 20 22 22 24 24 25 26 26 25 24 23 21 18 16 13 10 8 7 5 4 4 5 8 10
30 27 23 19 17 16 15 14 12 12 13 13 14 15 16 17 18 18 19 18 21 21 23 23 24 25 24 24 23 22 20 17 14 10 7 6 5 4 5 7 8 10 11
Wind_Direction
139 120 100 90 75 59 51 49 43 36 31 29 25 22 20 14 12 10 4 1 359 357 355 354 356 357 349 333 328 326 327 325 316 314 319 323 324 326 325 320 319 318 309
163 135 119 106 82 64 50 43 38 30 27 26 23 20 16 9 11 3 359 359 357 357 355 355 354 351 333 325 327 327 325 327 316 315 324 324 325 327 327 324 320 315 312
182 165 151 126 89 58 46 38 33 27 24 20 17 15 11 5 4 357 355 356 356 355 353 351 351 338 328 329 327 326 324 324 327 319 321 321 321 324 323 324 322 326 321
188 191 176 156 114 66 47 37 31 24 18 14 12 10 5 360 357 352 353 353 353 351 349 345 340 333 330 325 321 326 332 326 324 321 318 318 319 322 320 322 322 325 324
190 196 185 173 136 68 39 33 26 16 10 8 8 6 3 357 352 353 353 351 348 348 346 343 339 335 328 325 332 330 327 325 322 320 317 318 319 322 323 324 320 322 325
194 196 186 177 158 62 26 27 16 8 4 7 6 4 359 353 348 346 348 347 347 346 345 344 344 345 340 336 329 325 322 320 319 319 319 317 318 321 323 323 320 318 316
195 195 192 188 187 53 18 15 6 2 5 6 4 359 351 347 340 341 342 344 345 346 347 347 345 343 341 339 329 324 324 326 326 325 319 321 321 323 322 320 318 317 315
197 197 197 197 207 350 360 4 0 358 3 1 358 350 343 339 333 333 336 341 344 348 348 346 344 343 340 337 330 328 331 332 334 327 321 320 320 322 319 318 318 317 316
198 201 203 204 221 281 334 347 349 353 353 352 346 339 340 334 330 332 335 342 345 347 349 349 347 345 345 344 334 333 334 336 334 331 326 323 321 319 322 323 324 322 314
197 204 212 222 229 258 311 329 334 338 342 339 337 338 336 334 336 336 340 343 343 344 349 350 349 348 347 344 338 336 335 337 334 332 332 330 334 334 334 331 327 322 320
198 208 220 227 234 260 296 320 327 329 336 335 334 336 338 340 342 338 340 342 343 345 348 348 348 351 348 344 343 339 336 336 335 332 333 330 330 335 335 332 330 325 321
205 218 223 226 236 259 292 304 319 329 328 330 331 337 342 342 341 338 339 343 347 345 345 346 347 348 346 349 348 345 343 341 339 339 331 328 330 334 335 332 329 326 320
212 221 224 225 234 253 279 306 318 322 323 330 336 338 339 341 342 342 341 349 349 345 344 348 345 348 353 353 351 348 347 346 343 337 333 329 331 332 336 335 332 333 328
219 224 222 226 237 252 275 301 315 319 326 333 334 336 339 344 345 346 346 348 345 344 345 346 351 356 354 352 351 352 350 347 343 339 335 332 334 335 337 340 337 336 335
223 226 223 227 238 248 274 298 311 317 324 329 335 338 340 344 346 344 342 341 340 342 343 351 354 356 354 352 349 348 347 346 345 342 339 337 337 337 338 339 339 340 338
224 224 222 229 237 247 267 291 305 313 325 332 335 338 343 340 339 336 335 338 338 342 348 353 355 355 352 349 347 345 348 349 347 346 344 343 341 341 340 343 345 345 344
227 225 223 230 235 242 259 285 302 318 324 324 331 338 336 338 335 332 330 336 343 347 354 353 353 352 348 346 344 346 346 350 350 350 347 346 345 343 344 347 348 346 351
227 228 228 231 235 240 259 283 303 314 315 323 331 332 336 334 331 335 336 343 350 353 353 352 350 349 346 343 343 345 348 349 352 352 352 351 352 350 348 348 352 355 0
225 222 224 226 231 248 261 281 292 299 310 323 326 325 333 331 335 337 342 349 350 350 350 349 349 347 344 342 345 346 346 348 352 351 355 355 353 350 355 2 8 10 6
220 222 226 230 237 241 255 273 288 301 315 319 322 326 329 329 333 338 341 347 348 347 347 347 346 347 343 344 346 345 344 348 351 351 351 349 351 357 2 5 5 9 41
219 218 221 223 229 243 259 276 289 300 308 317 321 324 326 329 333 333 339 345 345 345 346 345 345 345 345 345 345 343 343 347 348 350 353 351 355 0 6 5 18 53 83
221 221 221 225 235 244 259 272 283 294 306 314 318 320 323 328 330 333 339 341 341 341 343 344 344 345 345 344 343 341 340 344 346 349 354 360 4 13 15 21 45 52 89
220 217 218 224 233 241 255 267 279 292 303 312 315 318 323 327 328 331 332 337 340 341 344 343 343 345 345 344 342 340 340 341 342 345 346 353 6 8 10 25 56 82 98
215 212 216 223 232 242 254 268 279 290 301 307 313 319 322 325 326 329 331 336 338 340 342 343 345 345 345 344 342 341 340 338 339 340 347 354 357 360 4 32 82 93 113
211 210 214 223 235 246 256 267 277 289 299 308 313 316 320 322 323 326 331 337 338 338 340 343 346 346 345 345 344 344 341 339 339 337 341 353 0 15 57 88 99 120 130
214 213 217 224 234 244 256 266 276 285 295 304 310 316 318 318 321 325 327 333 337 337 339 344 346 346 347 348 348 346 344 342 343 342 349 1 13 75 102 110 116 126 131
Height
1559 1560 1559 1559 1560 1560 1561 1560 1559 1557 1555 1552 1549 1548 1546 1544 1542 1541 1538 1535 1531 1527 1523 1520 1516 1513 1510 1506 1502 1498 1493 1487 1477 1467 1464 1457 1451 1446 1442 1437 1432 1428 1422
1558 1559 1559 1560 1560 1561 1559 1559 1558 1556 1554 1552 1550 1548 1547 1545 1543 1541 1538 1534 1529 1525 1520 1516 1513 1510 1507 1503 1498 1493 1488 1483 1476 1463 1458 1452 1448 1442 1436 1430 1426 1423 1417
1557 1558 1559 1559 1559 1559 1559 1558 1557 1555 1553 1552 1550 1548 1546 1544 1542 1539 1536 1532 1528 1523 1519 1514 1510 1507 1502 1497 1493 1488 1483 1477 1471 1464 1454 1450 1445 1439 1431 1426 1420 1414 1411
1556 1557 1557 1558 1559 1559 1558 1557 1556 1554 1553 1551 1550 1548 1546 1543 1541 1538 1534 1530 1526 1522 1517 1513 1509 1504 1499 1494 1489 1483 1478 1473 1468 1461 1453 1446 1441 1435 1431 1422 1412 1410 1402
1555 1555 1556 1557 1558 1557 1557 1556 1555 1554 1552 1551 1549 1547 1545 1542 1538 1535 1532 1527 1523 1518 1514 1510 1506 1502 1497 1491 1485 1480 1475 1469 1463 1456 1449 1442 1436 1430 1426 1420 1412 1404 1399
1553 1554 1555 1556 1555 1555 1555 1555 1554 1553 1551 1550 1548 1546 1543 1540 1536 1532 1529 1525 1520 1515 1510 1506 1502 1496 1490 1485 1482 1478 1473 1466 1459 1452 1445 1439 1433 1428 1422 1417 1409 1401 1391
1550 1552 1553 1554 1554 1554 1554 1553 1553 1552 1550 1548 1546 1544 1541 1538 1534 1530 1526 1522 1517 1512 1507 1500 1495 1491 1485 1479 1475 1470 1465 1460 1456 1449 1441 1436 1428 1424 1417 1411 1405 1399 1392
1548 1549 1551 1552 1552 1552 1552 1552 1551 1550 1548 1546 1545 1542 1539 1536 1531 1527 1523 1520 1515 1510 1504 1498 1492 1486 1481 1475 1468 1463 1458 1454 1449 1444 1439 1431 1426 1419 1415 1408 1401 1394 1387
1545 1546 1548 1549 1550 1550 1550 1550 1549 1548 1546 1545 1543 1540 1537 1533 1529 1524 1519 1514 1510 1505 1500 1495 1489 1482 1475 1470 1464 1457 1452 1447 1443 1438 1433 1427 1421 1415 1411 1403 1397 1391 1383
1541 1544 1546 1547 1548 1548 1548 1548 1547 1546 1544 1542 1540 1538 1535 1532 1527 1521 1515 1510 1505 1499 1495 1490 1485 1479 1472 1467 1461 1455 1448 1442 1436 1430 1425 1419 1413 1408 1404 1400 1394 1387 1381
1539 1541 1543 1544 1545 1546 1546 1545 1544 1543 1542 1540 1538 1535 1532 1528 1523 1518 1513 1507 1501 1495 1490 1485 1480 1475 1470 1464 1460 1454 1447 1439 1432 1426 1418 1412 1407 1402 1398 1394 1390 1384 1378
1535 1537 1539 1541 1542 1543 1543 1543 1541 1540 1539 1537 1535 1532 1528 1524 1520 1515 1510 1506 1500 1493 1487 1482 1476 1471 1466 1460 1454 1448 1442 1435 1428 1420 1414 1408 1402 1397 1392 1388 1384 1379 1375
1532 1534 1536 1537 1539 1540 1540 1539 1539 1537 1536 1534 1531 1528 1525 1521 1517 1512 1508 1503 1497 1491 1486 1480 1474 1468 1461 1455 1449 1444 1438 1430 1423 1417 1410 1404 1399 1393 1387 1382 1378 1374 1369
1528 1530 1532 1534 1535 1536 1536 1536 1535 1534 1532 1530 1528 1525 1521 1517 1512 1508 1503 1498 1492 1486 1481 1476 1469 1463 1458 1452 1445 1439 1434 1428 1421 1414 1407 1400 1394 1389 1383 1379 1374 1369 1364
1524 1527 1528 1530 1532 1533 1533 1533 1532 1530 1529 1526 1524 1520 1517 1513 1509 1504 1500 1494 1489 1484 1477 1471 1465 1459 1453 1448 1443 1437 1431 1424 1418 1411 1404 1397 1391 1386 1381 1376 1372 1367 1363
1520 1522 1524 1526 1528 1529 1530 1530 1528 1527 1525 1522 1520 1517 1513 1509 1506 1502 1497 1493 1488 1482 1475 1468 1463 1458 1452 1446 1440 1434 1428 1422 1415 1408 1401 1395 1390 1384 1379 1374 1370 1366 1361
1516 1518 1520 1522 1524 1526 1526 1526 1525 1523 1521 1519 1516 1513 1510 1507 1503 1498 1494 1490 1485 1480 1474 1468 1463 1458 1452 1446 1440 1434 1426 1420 1413 1406 1400 1394 1389 1383 1378 1373 1369 1365 1361
1512 1514 1516 1519 1520 1522 1522 1522 1521 1520 1518 1516 1513 1510 1506 1503 1500 1495 1490 1485 1481 1477 1473 1468 1462 1457 1451 1445 1439 1432 1425 1418 1411 1405 1399 1394 1388 1383 1378 1373 1369 1365 1362
1506 1508 1511 1514 1516 1517 1518 1518 1517 1516 1514 1512 1510 1507 1504 1500 1496 1492 1487 1482 1478 1474 1470 1466 1461 1456 1450 1444 1437 1430 1424 1418 1411 1405 1399 1394 1389 1384 1379 1375 1371 1368 1365
1500 1503 1506 1509 1511 1513 1513 1513 1513 1511 1510 1508 1505 1502 1499 1496 1492 1487 1483 1480 1476 1472 1468 1464 1459 1454 1448 1442 1435 1429 1423 1417 1410 1404 1399 1394 1390 1385 1381 1378 1374 1371 1368
1496 1499 1502 1505 1507 1508 1509 1509 1508 1507 1506 1503 1501 1498 1495 1492 1488 1484 1480 1477 1473 1469 1465 1461 1456 1451 1445 1439 1433 1427 1421 1415 1410 1404 1399 1394 1390 1386 1383 1380 1378 1375 1374
1491 1494 1498 1500 1502 1503 1504 1504 1504 1502 1501 1499 1497 1494 1492 1488 1484 1481 1477 1474 1470 1467 1462 1458 1453 1448 1443 1437 1431 1425 1420 1414 1409 1404 1399 1395 1392 1389 1386 1383 1381 1379 1378
1486 1489 1493 1495 1497 1498 1499 1499 1498 1497 1496 1494 1492 1490 1487 1484 1481 1478 1474 1470 1467 1463 1459 1455 1450 1445 1440 1435 1429 1424 1418 1413 1408 1404 1400 1396 1393 1391 1388 1386 1385 1384 1383
1481 1484 1487 1490 1492 1493 1494 1493 1493 1492 1491 1490 1488 1485 1483 1480 1477 1474 1470 1467 1464 1460 1456 1451 1447 1442 1436 1431 1426 1421 1417 1412 1408 1404 1400 1397 1395 1392 1390 1389 1388 1387 1387
1475 1478 1482 1484 1486 1487 1488 1488 1488 1487 1486 1485 1483 1481 1479 1476 1474 1470 1467 1464 1460 1456 1453 1448 1444 1439 1434 1429 1424 1419 1415 1410 1406 1403 1400 1398 1396 1394 1392 1392 1392 1391 1392
1468 1472 1476 1479 1480 1482 1482 1483 1483 1482 1481 1480 1479 1477 1475 1473 1470 1466 1463 1460 1457 1453 1450 1445 1441 1436 1432 1427 1422 1417 1413 1409 1405 1402 1400 1398 1397 1396 1395 1395 1395 1395 1396